Location: Centerville
(32.8776°N, 96.6203°W)
Time: 05:33:21
(UTC+00:00)

CZ-2D R/B - Pass Details

Date: 17 June 2021
Orbit: 551 x 639 km, 97.9° (Epoch: 29 July)

Event Time Altitude Azimuth Distance (km) Brightness Sun altitude
Rises 09:33:18 0° 16° (NNE) 2,845 8.0 -18.4°
Reaches altitude 10° 09:35:31 10° 20° (NNE) 1,924 7.1 -18.1°
Maximum altitude 09:39:38 60° 100° (E) 668 3.8 -17.4°
Enters shadow 09:42:14 21° 175° (S) 1,316 4.9 -17.1°
